Regional Weather Roundup
Issued by NWS

Home | Current Version | Previous Version | Graphics & Text | Print | Product List | Glossary On
Versions: 1 2 3 4 5 6 7 8 9 10 11 12 13 14 15 16 17 18 19 20 21 22 23 24 25 26 27 28 29 30 31 32 33 34 35 36 37 38 39 40 41 42 43 44 45 46 47 48 49 50
013
ASUS44 KJAN 292010
RWRMS

MISSISSIPPI HOURLY WEATHER ROUNDUP
NATIONAL WEATHER SERVICE JACKSON MS
200 PM CST THU JAN 29 2015

NOTE: "FAIR: INDICATES FEW OR NO CLOUDS BELOW 12,000 FEET WITH NO
SIGNIFICANT WEATHER AND/OR OBSTRUCTIONS TO VISIBILITY.

MSZ001>002-007>008-010>013-018>021-025>028-034>036-292100-
NORTHWEST MISSISSIPPI

CITY           SKY/WX    TMP DP  RH WIND       PRES   REMARKS
CLARKSDALE     FAIR      64  48  55 NW12      30.13R
CLEVELAND      FAIR      69  53  55 NW9G16    30.11S
GREENWOOD      SUNNY     68  50  52 W9        30.11F
GREENVILLE     MOSUNNY   70  50  49 W10       30.11F
GRENADA        FAIR      68  48  49 W8G16     30.11S
OLIVE BRANCH   CLOUDY    61  43  51 W15G22    30.11R
OXFORD         FAIR      63  46  55 W9G20     30.11S
TUNICA         CLOUDY    64  45  48 NW16      30.13S
$$

MSZ003>006-009-014>017-022>024-029>033-037>039-292100-
NORTHEAST MISSISSIPPI

CITY           SKY/WX    TMP DP  RH WIND       PRES   REMARKS
COLUMBUS AFB   CLOUDY    69  46  44 SW8       30.08F
CORINTH        MOCLDY    66  46  48 W10G18    30.06S
GOLDN TRIANGLE PTSUNNY   68  48  49 W9G16     30.08F
STARKVILLE     FAIR      68  48  49 W8        30.09F
TUPELO         CLOUDY    67  47  48 W12       30.07F
$$

MSZ040-058-292100-
CENTRAL MISSISSIPPI

CITY           SKY/WX    TMP DP  RH WIND       PRES   REMARKS
JACKSON INTL   PTSUNNY   75  47  36 SW14G25   30.11F
JACKSON HAWKNS PTSUNNY   73  44  35 W21       30.12F
MERIDIAN KEY   SUNNY     73  49  42 SW12G21   30.12F
MERIDIAN NAS   PTSUNNY   74  48  39 W13G20    30.12F
RAYMOND        FAIR      72  66  83 W16       30.13S
VICKSBURG      PTSUNNY   71  53  52 SW9       30.14F
$$

MSZ059>079-292100-
SOUTH MISSISSIPPI

CITY           SKY/WX    TMP DP  RH WIND       PRES   REMARKS
BROOKHAVEN     FAIR      75  48  38 SW14      30.16F
HATTIESBURG    SUNNY     76  51  41 SW13G22   30.16F
MCCOMB         SUNNY     75  52  44 W13       30.16F
NATCHEZ        PTSUNNY   72  52  49 W17       30.17F
PINE BELT      SUNNY     73  52  46 SW9       30.17F
$$

MSZ080>082-292100-
COASTAL MISSISSIPPI

CITY           SKY/WX    TMP DP  RH WIND       PRES   REMARKS
BILOXI         SUNNY     68  54  62 S9        30.21F
PASCAGOULA     SUNNY     69  53  56 S9        30.21F
GULFPORT       SUNNY     67  53  61 S13       30.20F
$$



USA.gov is the U.S. government's official web portal to all federal, state and local government web resources and services.